W3JGB Weather Reports


Display with metric or nautical units.
time (UTC)temp
F
wind
direction
speed
MPH
gust
MPH
rain 1hr
in
rain 24hr
in
rain mn
in
humidity
%
barometer
mb
20260505171256 81 47 2.0 2.0 0.00 0.00 0.00 42 1007.0
20260505170752 80 330 0.0 0.0 0.00 0.00 0.00 43 1007.3
20260505170249 80 0 1.0 1.0 0.00 0.00 0.00 43 1006.7
20260505165744 80 260 2.0 2.0 0.00 0.00 0.00 43 1007.1
20260505165241 78 4 1.0 2.0 0.00 0.00 0.00 44 1007.2
20260505164736 78 219 3.0 3.0 0.00 0.00 0.00 44 1007.3
20260505164234 78 273 4.0 6.0 0.00 0.00 0.00 43 1007.3
20260505163732 78 343 2.0 2.0 0.00 0.00 0.00 45 1007.1
20260505163230 79 206 4.0 5.0 0.00 0.00 0.00 43 1007.4
20260505162727 79 187 5.0 7.0 0.00 0.00 0.00 43 1007.3
20260505162224 79 350 1.0 2.0 0.00 0.00 0.00 46 1007.5
20260505161721 79 305 3.0 3.0 0.00 0.00 0.00 46 1007.4
20260505161219 78 110 7.0 10.0 0.00 0.00 0.00 45 1007.7
20260505160716 78 72 3.0 3.0 0.00 0.00 0.00 46 1007.8
20260505160213 78 262 8.0 11.0 0.00 0.00 0.00 46 1007.8
20260505153152 77 137 5.0 8.0 0.00 0.00 0.00 48 1008.0
20260505152649 77 274 3.0 5.0 0.00 0.00 0.00 48 1008.0
20260505152145 77 281 2.0 2.0 0.00 0.00 0.00 49 1007.9
20260505151640 77 229 3.0 5.0 0.00 0.00 0.00 48 1008.0
20260505151138 77 229 2.0 3.0 0.00 0.00 0.00 50 1008.0
20260505150634 77 7 1.0 2.0 0.00 0.00 0.00 51 1008.2
20260505150131 77 239 3.0 5.0 0.00 0.00 0.00 49 1008.2
20260505140600 73 36 2.0 2.0 0.00 0.00 0.00 51 1008.2
20260505125013 69 30 1.0 2.0 0.00 0.00 0.00 66 1008.8
20260505124510 68 13 0.0 0.0 0.00 0.00 0.00 69 1008.7
20260505124006 67 10 0.0 0.0 0.00 0.00 0.00 73 1008.8
20260505123503 65 5 2.0 2.0 0.00 0.00 0.00 74 1008.7
20260505122959 62 8 0.0 0.0 0.00 0.00 0.00 85 1008.7
20260505122456 60 8 0.0 0.0 0.00 0.00 0.00 88 1008.9
20260505121953 60 6 0.0 0.0 0.00 0.00 0.00 90 1008.9
20260505121449 60 23 0.0 0.0 0.00 0.00 0.00 88 1009.0
20260505120945 60 0 0.0 0.0 0.00 0.00 0.00 86 1008.7
20260505120442 60 9 0.0 0.0 0.00 0.00 0.00 83 1009.0
20260505115941 58 357 0.0 1.0 0.00 0.00 0.00 89 1008.9
20260505115438 56 24 1.0 1.0 0.00 0.00 0.00 90 1008.8
20260505114936 56 16 0.0 0.0 0.00 0.00 0.00 93 1008.9
20260505114432 56 344 0.0 0.0 0.00 0.00 0.00 94 1008.6
20260505113928 55 5 0.0 0.0 0.00 0.00 0.00 94 1008.9
20260505113425 54 7 0.0 0.0 0.00 0.00 0.00 95 1008.7
20260505112921 53 6 0.0 0.0 0.00 0.00 0.00 95 1008.7
20260505112419 53 3 0.0 0.0 0.00 0.00 0.00 95 1008.9
20260505111915 52 0 0.0 0.0 0.00 0.00 0.00 97 1008.8
20260505111409 51 351 0.0 0.0 0.00 0.00 0.00 97 1008.2
20260505110906 51 1 1.0 1.0 0.00 0.00 0.00 98 1008.6
20260505110403 50 7 0.0 0.0 0.00 0.00 0.00 98 1008.4
20260505101833 48 357 1.0 1.0 0.00 0.00 0.00 99 1008.4
20260505101328 48 8 0.0 0.0 0.00 0.00 0.00 99 1008.2
20260505100824 48 5 0.0 0.0 0.00 0.00 0.00 99 1008.5
20260505100321 48 4 0.0 0.0 0.00 0.00 0.00 99 1008.4
20260505095817 48 9 1.0 1.0 0.00 0.00 0.00 99 1008.2
20260505095315 48 354 0.0 0.0 0.00 0.00 0.00 98 1008.4
20260505094810 48 354 0.0 0.0 0.00 0.00 0.00 99 1008.1
20260505094308 48 6 0.0 0.0 0.00 0.00 0.00 99 1008.0
20260505093803 48 9 0.0 0.0 0.00 0.00 0.00 99 1008.4
20260505093301 48 1 0.0 1.0 0.00 0.00 0.00 99 1007.8
20260505092757 48 353 2.0 2.0 0.00 0.00 0.00 99 1007.6
20260505092256 48 8 0.0 1.0 0.00 0.00 0.00 99 1007.5
20260505091753 48 6 0.0 0.0 0.00 0.00 0.00 98 1007.6
20260505091251 48 10 0.0 0.0 0.00 0.00 0.00 98 1007.8
20260505090749 48 7 0.0 0.0 0.00 0.00 0.00 98 1007.6
20260505090247 48 6 0.0 0.0 0.00 0.00 0.00 98 1007.6
20260505085744 48 9 0.0 0.0 0.00 0.00 0.00 98 1007.6
20260505085242 48 7 0.0 0.0 0.00 0.00 0.00 98 1007.6
20260505084739 48 5 0.0 0.0 0.00 0.00 0.00 98 1007.6
20260505084238 48 9 0.0 0.0 0.00 0.00 0.00 99 1007.5
20260505083734 48 10 2.0 2.0 0.00 0.00 0.00 98 1007.6
20260505083231 48 9 0.0 0.0 0.00 0.00 0.00 98 1007.9
20260505082727 48 10 0.0 0.0 0.00 0.00 0.00 98 1007.9
20260505082225 48 6 0.0 0.0 0.00 0.00 0.00 98 1007.7
20260505081720 48 7 0.0 0.0 0.00 0.00 0.00 98 1007.8
20260505081218 48 1 0.0 0.0 0.00 0.00 0.00 98 1007.5
20260505080715 48 5 0.0 0.0 0.00 0.00 0.00 98 1007.6
20260505080210 48 4 0.0 0.0 0.00 0.00 0.00 98 1007.7
20260505075706 48 5 0.0 0.0 0.00 0.00 0.00 97 1007.6
20260505075203 48 9 0.0 0.0 0.00 0.00 0.00 97 1007.6
20260505074700 48 5 0.0 0.0 0.00 0.00 0.00 97 1007.4
20260505074157 49 7 0.0 0.0 0.00 0.00 0.00 97 1007.2
20260505073655 49 352 0.0 0.0 0.00 0.00 0.00 97 1007.3
20260505073153 49 9 0.0 0.0 0.00 0.00 0.00 97 1007.5
20260505072648 48 5 0.0 0.0 0.00 0.00 0.00 97 1007.4
20260505072145 49 6 0.0 0.0 0.00 0.00 0.00 96 1007.3
20260505071641 49 10 0.0 0.0 0.00 0.00 0.00 96 1007.5
20260505071139 49 6 0.0 0.0 0.00 0.00 0.00 96 1007.2
20260505070636 49 5 0.0 0.0 0.00 0.00 0.00 96 1007.5
20260505070132 49 6 0.0 0.0 0.00 0.00 0.00 95 1007.3
20260505065628 49 358 0.0 0.0 0.00 0.00 0.00 95 1007.3
20260505065125 50 9 0.0 0.0 0.00 0.00 0.00 94 1007.4
20260505064621 50 6 0.0 0.0 0.00 0.00 0.00 95 1007.4
20260505064120 50 9 0.0 0.0 0.00 0.00 0.00 95 1007.5
20260505063617 50 6 0.0 0.0 0.00 0.00 0.00 95 1007.4
20260505063113 50 8 0.0 0.0 0.00 0.00 0.00 94 1007.5
20260505062609 50 8 0.0 0.0 0.00 0.00 0.00 94 1007.4
20260505062107 50 7 0.0 0.0 0.00 0.00 0.00 93 1007.4
20260505061604 50 8 0.0 0.0 0.00 0.00 0.00 93 1007.5
20260505061102 50 6 0.0 0.0 0.00 0.00 0.00 93 1007.5
20260505060559 51 8 0.0 0.0 0.00 0.00 0.00 93 1007.6
20260505060056 50 9 0.0 0.0 0.00 0.00 0.00 93 1007.6
20260505055551 50 7 0.0 0.0 0.00 0.00 0.00 92 1007.8
20260505055048 50 6 0.0 0.0 0.00 0.00 0.00 92 1007.9
20260505054545 51 14 0.0 0.0 0.00 0.00 0.00 92 1007.8
20260505054043 51 9 0.0 0.0 0.00 0.00 0.00 92 1007.5
20260505053540 51 9 0.0 0.0 0.00 0.00 0.00 92 1007.7
20260505053037 51 9 0.0 0.0 0.00 0.00 0.00 91 1007.7
20260505052534 51 8 0.0 0.0 0.00 0.00 0.00 91 1008.0
20260505052031 51 8 0.0 0.0 0.00 0.00 0.00 92 1007.8
20260505051528 51 8 0.0 0.0 0.00 0.00 0.00 92 1008.0
20260505051026 51 10 0.0 0.0 0.00 0.00 0.00 93 1008.0
20260505050524 51 8 0.0 0.0 0.00 0.00 0.00 92 1007.9
20260505041452 51 1 0.0 0.0 0.00 0.00 0.00 90 1007.8
20260505040949 51 4 0.0 0.0 0.00 0.00 0.00 89 1007.8
20260505040446 52 4 0.0 0.0 0.00 0.00 0.00 88 1007.5
20260505035943 52 4 0.0 0.0 0.00 0.00 0.00 88 1007.7
20260505035439 52 3 0.0 0.0 0.00 0.00 0.00 88 1007.6
20260505034936 52 7 0.0 0.0 0.00 0.00 0.00 87 1007.4
20260505034433 52 0 0.0 0.0 0.00 0.00 0.00 88 1007.6
20260505033930 53 4 0.0 0.0 0.00 0.00 0.00 88 1007.7
20260505033426 53 4 0.0 0.0 0.00 0.00 0.00 87 1007.4
20260505032925 53 2 0.0 0.0 0.00 0.00 0.00 87 1007.4
20260505032422 53 9 0.0 0.0 0.00 0.00 0.00 86 1007.4
20260505031918 53 4 0.0 0.0 0.00 0.00 0.00 86 1007.6
20260505031415 53 4 0.0 0.0 0.00 0.00 0.00 85 1007.4
20260505030912 53 4 0.0 0.0 0.00 0.00 0.00 85 1007.5
20260505030408 54 357 0.0 0.0 0.00 0.00 0.00 85 1007.3
20260505025903 54 4 0.0 0.0 0.00 0.00 0.00 84 1007.4
20260505025401 54 359 0.0 0.0 0.00 0.00 0.00 83 1007.4
20260505024900 55 6 0.0 0.0 0.00 0.00 0.00 82 1007.3
20260505024357 55 2 0.0 0.0 0.00 0.00 0.00 82 1007.3
20260505023854 55 0 0.0 0.0 0.00 0.00 0.00 81 1007.3
20260505023351 56 6 0.0 0.0 0.00 0.00 0.00 80 1007.5
20260505022848 56 358 0.0 0.0 0.00 0.00 0.00 81 1007.5
20260505022345 56 7 0.0 0.0 0.00 0.00 0.00 79 1007.5
20260505021842 56 7 0.0 0.0 0.00 0.00 0.00 79 1007.5
20260505021338 56 8 0.0 0.0 0.00 0.00 0.00 79 1007.5
20260505020834 57 2 0.0 0.0 0.00 0.00 0.00 80 1007.5
20260505020330 57 7 0.0 0.0 0.00 0.00 0.00 78 1007.6
20260505015827 57 7 0.0 0.0 0.00 0.00 0.00 76 1007.5
20260505015324 57 4 0.0 0.0 0.00 0.00 0.00 77 1007.6
20260505014822 58 5 0.0 0.0 0.00 0.00 0.00 76 1007.3
20260505014318 58 4 0.0 0.0 0.00 0.00 0.00 73 1007.7
20260505013815 59 4 0.0 0.0 0.00 0.00 0.00 72 1007.6
20260505013312 59 359 0.0 0.0 0.00 0.00 0.00 72 1007.5
20260505012811 59 352 0.0 0.0 0.00 0.00 0.00 71 1007.4
20260505012308 60 3 0.0 0.0 0.00 0.00 0.00 69 1007.4
20260505011804 60 3 0.0 0.0 0.00 0.00 0.00 66 1007.4
20260505011301 60 2 0.0 0.0 0.00 0.00 0.00 69 1007.5
20260505010757 61 1 0.0 0.0 0.00 0.00 0.00 66 1007.3
20260505010253 62 5 0.0 0.0 0.00 0.00 0.00 65 1007.3
20260505005749 63 4 0.0 0.0 0.00 0.00 0.00 65 1007.2
20260505005246 63 2 0.0 0.0 0.00 0.00 0.00 61 1007.5
20260505004743 64 6 0.0 0.0 0.00 0.00 0.00 59 1007.2
20260505004239 65 5 0.0 0.0 0.00 0.00 0.00 53 1006.9
20260505003737 66 0 0.0 0.0 0.00 0.00 0.00 54 1007.0
20260505003235 66 358 0.0 0.0 0.00 0.00 0.00 54 1007.2
20260505002731 66 1 0.0 0.0 0.00 0.00 0.00 52 1006.8
20260505002228 67 359 0.0 0.0 0.00 0.00 0.00 52 1006.7
20260505001726 67 349 0.0 0.0 0.00 0.00 0.00 53 1006.8
20260505001223 67 357 0.0 0.0 0.00 0.00 0.00 51 1006.7
20260505000720 68 4 0.0 0.0 0.00 0.00 0.00 49 1006.7
20260505000219 68 2 0.0 0.0 0.00 0.00 0.00 48 1006.7
20260504235714 68 308 1.0 2.0 0.00 0.00 0.00 49 1006.6
20260504235210 69 337 0.0 1.0 0.00 0.00 0.00 49 1006.5
20260504234708 70 15 2.0 2.0 0.00 0.00 0.00 47 1006.7
20260504234205 70 9 0.0 0.0 0.00 0.00 0.00 49 1006.6
20260504233701 70 322 4.0 7.0 0.00 0.00 0.00 45 1006.5
20260504233157 70 15 0.0 0.0 0.00 0.00 0.00 48 1006.5
20260504232654 70 358 1.0 1.0 0.00 0.00 0.00 47 1006.2
20260504232151 70 344 0.0 0.0 0.00 0.00 0.00 49 1006.2
20260504231648 70 17 0.0 0.0 0.00 0.00 0.00 49 1006.3
20260504231144 70 6 0.0 0.0 0.00 0.00 0.00 49 1006.2
20260504230640 71 355 0.0 0.0 0.00 0.00 0.00 45 1006.0
20260504230139 72 15 0.0 0.0 0.00 0.00 0.00 43 1006.1
20260504225638 73 311 3.0 5.0 0.00 0.00 0.00 42 1006.1
20260504225133 73 1 0.0 0.0 0.00 0.00 0.00 40 1005.9
20260504224630 73 347 1.0 1.0 0.00 0.00 0.00 40 1005.9
20260504224127 74 3 0.0 0.0 0.00 0.00 0.00 40 1005.9
20260504223624 74 304 0.0 1.0 0.00 0.00 0.00 40 1005.8
20260504223120 73 340 3.0 3.0 0.00 0.00 0.00 39 1006.0
20260504222617 74 348 0.0 0.0 0.00 0.00 0.00 39 1006.0
20260504222114 74 350 0.0 0.0 0.00 0.00 0.00 39 1005.9
20260504221611 74 346 2.0 2.0 0.00 0.00 0.00 40 1006.0
20260504221108 74 37 1.0 1.0 0.00 0.00 0.00 40 1006.0
20260504220604 74 335 1.0 1.0 0.00 0.00 0.00 41 1005.7
20260504215558 73 343 2.0 2.0 0.00 0.00 0.00 39 1005.9
20260504215056 74 356 1.0 1.0 0.00 0.00 0.00 39 1005.9
20260504214551 75 357 1.0 1.0 0.00 0.00 0.00 37 1006.1
20260504214048 75 186 4.0 5.0 0.00 0.00 0.00 35 1005.9
20260504213544 75 21 0.0 0.0 0.00 0.00 0.00 37 1005.9
20260504213041 76 198 2.0 3.0 0.00 0.00 0.00 35 1006.0
20260504212537 77 191 3.0 6.0 0.00 0.00 0.00 35 1005.9
20260504212035 77 359 0.0 1.0 0.00 0.00 0.00 34 1005.7
20260504211532 77 310 2.0 3.0 0.00 0.00 0.00 32 1006.0
20260504211028 77 269 3.0 3.0 0.00 0.00 0.00 33 1006.1
20260504210526 77 293 2.0 2.0 0.00 0.00 0.00 32 1006.3
20260504210022 77 60 0.0 1.0 0.00 0.00 0.00 33 1006.1
20260504205520 77 243 2.0 2.0 0.00 0.00 0.00 33 1006.2
20260504205018 77 326 0.0 0.0 0.00 0.00 0.00 33 1006.2
20260504204516 77 3 1.0 2.0 0.00 0.00 0.00 32 1006.6
20260504204015 77 11 2.0 2.0 0.00 0.00 0.00 33 1006.1
20260504203512 76 234 3.0 5.0 0.00 0.00 0.00 35 1006.3
20260504203009 76 275 3.0 3.0 0.00 0.00 0.00 35 1006.4
20260504202505 76 48 0.0 1.0 0.00 0.00 0.00 35 1006.3
20260504202001 76 333 2.0 2.0 0.00 0.00 0.00 37 1006.5
20260504201459 77 176 3.0 5.0 0.00 0.00 0.00 37 1006.6
20260504200956 75 6 0.0 0.0 0.00 0.00 0.00 37 1006.6
20260504200453 75 24 0.0 1.0 0.00 0.00 0.00 36 1006.8
20260504195949 75 0 1.0 2.0 0.00 0.00 0.00 35 1007.1
20260504195445 77 214 4.0 5.0 0.00 0.00 0.00 37 1006.8
20260504194942 77 2 0.0 1.0 0.00 0.00 0.00 36 1006.8
20260504194438 76 358 0.0 0.0 0.00 0.00 0.00 38 1006.9
20260504193934 75 3 1.0 2.0 0.00 0.00 0.00 38 1007.1
20260504193432 76 8 1.0 1.0 0.00 0.00 0.00 37 1007.0
20260504192930 76 257 2.0 2.0 0.00 0.00 0.00 37 1007.1
20260504192427 76 353 3.0 5.0 0.00 0.00 0.00 36 1007.3
20260504191926 75 225 1.0 3.0 0.00 0.00 0.00 38 1007.4
20260504191424 75 146 5.0 9.0 0.00 0.00 0.00 37 1007.4
20260504190919 74 345 1.0 1.0 0.00 0.00 0.00 42 1007.6
20260504190415 76 194 3.0 6.0 0.00 0.00 0.00 37 1007.6
20260504185912 75 196 2.0 5.0 0.00 0.00 0.00 37 1007.8
20260504185409 77 57 0.0 1.0 0.00 0.00 0.00 37 1007.8
20260504184904 76 58 3.0 3.0 0.00 0.00 0.00 40 1007.7
20260504184400 76 134 6.0 7.0 0.00 0.00 0.00 36 1007.7
20260504183856 75 342 0.0 0.0 0.00 0.00 0.00 36 1007.7
20260504183354 75 351 1.0 2.0 0.00 0.00 0.00 38 1007.9
20260504182852 75 178 1.0 2.0 0.00 0.00 0.00 39 1007.9
20260504182349 74 251 3.0 5.0 0.00 0.00 0.00 37 1008.0
20260504181845 75 337 2.0 3.0 0.00 0.00 0.00 38 1008.1
20260504181343 73 313 3.0 5.0 0.00 0.00 0.00 38 1008.2
20260504180842 73 278 4.0 6.0 0.00 0.00 0.00 42 1008.2
20260504180340 74 24 1.0 2.0 0.00 0.00 0.00 40 1008.2
20260504175838 73 1 1.0 1.0 0.00 0.00 0.00 39 1008.5
20260504175334 74 348 1.0 1.0 0.00 0.00 0.00 40 1008.8
20260504174832 73 53 2.0 5.0 0.00 0.00 0.00 42 1008.7
20260504174330 70 2 0.0 1.0 0.00 0.00 0.00 43 1008.8
20260504173826 72 48 4.0 5.0 0.00 0.00 0.00 41 1008.9
20260504173323 73 65 0.0 0.0 0.00 0.00 0.00 40 1008.8
20260504172820 73 326 4.0 5.0 0.00 0.00 0.00 39 1009.0
20260504172317 72 13 0.0 0.0 0.00 0.00 0.00 39 1009.0
20260504171812 71 353 0.0 1.0 0.00 0.00 0.00 42 1009.1